Weather History for Lorain / Elyria, OH

Change the Weather History Date:

Monday, January 6, 2014

  Actual Average (KCLE) Record (KCLE)
Temperature  
Mean Temperature 10 °F 28 °F  
Max Temperature 30 °F 34 °F 66 °F (1946)
Min Temperature -11 °F 22 °F -11 °F (2014)
Degree Days  
Heating Degree Days 56 37  
Month to date heating degree days 221  
Since 1 July heating degree days 2328  
Cooling Degree Days 0 0  
Month to date cooling degree days 0  
Year to date cooling degree days 0  
Moisture  
Dew Point 1 °F    
Average Humidity 72    
Maximum Humidity 93    
Minimum Humidity 55    
Precipitation  
Precipitation 0.00 in 0.10 in 1.08 in (1950)
Month to date precipitation 0.60  
Year to date precipitation 0.60  
Snow  
Snow 0.00 in 0.60 in - ()
Month to date snowfall 3.5  
Since 1 July snowfall 22.1  
Snow Depth -    
Sea Level Pressure  
Sea Level Pressure 29.87 in    
Wind  
Wind Speed 21 mph (West)    
Max Wind Speed 31 mph    
Max Gust Speed 40 mph    
Visibility 3 miles    
Events Fog , Snow    
T = Trace of Precipitation, MM = Missing Value Source: NWS Daily Summary

Daily Weather History Graph

Daily Weather History Graph

Search for Another Location

Airport:

Trip Planner

Search our weather history database for the weather conditions in past years. The results will help you decide how hot, cold, wet, or windy it might be!

Date:

Astronomy

Jan. 06, 2014 Rise Set
Actual Time 7:54 AM EST 5:14 PM EST
Civil Twilight 7:23 AM EST 5:45 PM EST
Nautical Twilight 6:49 AM EST 6:20 PM EST
Astronomical Twilight 6:15 AM EST 6:53 PM EST
Moon 11:05 AM EST (1/6) 11:51 PM EST (1/6)
Length of Visible Light 10h 21m
Length of Day
9h 19m
Waxing Crescent, 34% of the Moon is Illuminated
Jan 6
Waxing Crescent
Jan 7
First Quarter
Jan 15
Full
Jan 24
Last Quarter
Jan 30
New

Hourly Weather History & Observations

Time (EST) Temp. Windchill Dew Point Humidity Pressure Visibility Wind Dir Wind Speed Gust Speed Precip Events Conditions
12:08 AM 30.2 °F 20.8 °F 28.4 °F 93% 29.36 in 2.5 mi NNE 11.5 mph - 0.00 in Snow Light Snow
12:33 AM 30.2 °F 18.5 °F 28.4 °F 93% 29.42 in 1.0 mi NW 17.3 mph 23.0 mph 0.00 in Snow Light Snow
12:40 AM 30.2 °F 18.1 °F 28.4 °F 93% 29.44 in 0.5 mi NW 18.4 mph 23.0 mph 0.00 in Fog , Snow Snow
12:53 AM 30.9 °F 20.2 °F 28.0 °F 89% 29.45 in 0.5 mi NNW 15.0 mph 25.3 mph 0.00 in Fog , Snow Snow
1:15 AM 28.4 °F 13.8 °F 24.8 °F 86% 29.47 in 0.5 mi NW 25.3 mph 36.8 mph 0.00 in Fog , Snow Snow
1:41 AM 24.8 °F 9.0 °F 21.2 °F 86% 29.51 in 1.8 mi NW 25.3 mph 39.1 mph 0.00 in Snow Light Snow
1:46 AM 24.8 °F 9.6 °F 21.2 °F 86% 29.52 in 3.0 mi NW 23.0 mph 39.1 mph 0.00 in Snow Light Snow
1:53 AM 25.0 °F 9.2 °F 19.9 °F 81% 29.57 in 4.0 mi NW 25.3 mph 33.4 mph 0.00 in Snow Light Snow
2:19 AM 24.8 °F 10.3 °F 19.4 °F 80% 29.56 in 4.0 mi NW 20.7 mph 32.2 mph 0.00 in Snow Light Snow
2:43 AM 24.8 °F 11.9 °F 19.4 °F 80% 29.60 in 2.5 mi NW 16.1 mph 34.5 mph 0.00 in Snow Light Snow
2:53 AM 24.1 °F 11.0 °F 19.0 °F 81% 29.64 in 2.5 mi NW 16.1 mph 33.4 mph 0.00 in Snow Light Snow
3:40 AM 21.2 °F 4.9 °F 17.6 °F 86% 29.66 in 3.0 mi WNW 23.0 mph 28.8 mph 0.00 in Snow Light Snow
3:50 AM 21.2 °F 4.9 °F 15.8 °F 80% 29.67 in 2.5 mi NW 23.0 mph 29.9 mph 0.00 in Snow Light Snow
3:53 AM 21.9 °F 5.8 °F 16.0 °F 78% 29.69 in 2.5 mi NW 23.0 mph 31.1 mph 0.00 in Snow Light Snow
4:53 AM 19.9 °F 3.2 °F 14.0 °F 78% 29.75 in 4.0 mi WNW 23.0 mph 28.8 mph 0.00 in Snow Light Snow
5:19 AM 19.4 °F 4.5 °F 12.2 °F 74% 29.74 in 3.0 mi WNW 17.3 mph - 0.00 in Snow Light Snow
5:53 AM 19.0 °F 4.0 °F 12.0 °F 74% 29.80 in 8.0 mi WNW 17.3 mph 24.2 mph 0.00 in Snow Light Snow
6:53 AM 18.0 °F 2.6 °F 10.9 °F 74% 29.83 in 7.0 mi West 17.3 mph 26.5 mph 0.00 in Snow Light Snow
7:53 AM 16.0 °F -2.8 °F 9.0 °F 74% 29.87 in 3.0 mi West 25.3 mph 35.7 mph 0.00 in Snow Light Snow
7:59 AM 14.0 °F -4.3 °F 6.8 °F 73% 29.84 in 1.8 mi West 21.9 mph 35.7 mph 0.00 in Snow Light Snow
8:36 AM 10.4 °F -11.0 °F 5.0 °F 79% 29.87 in 0.8 mi West 27.6 mph 33.4 mph 0.00 in Snow Light Snow
8:48 AM 10.4 °F -10.7 °F 3.2 °F 73% 29.88 in 1.2 mi West 26.5 mph 32.2 mph 0.00 in Snow Light Snow
8:53 AM 9.0 °F -11.0 °F 3.0 °F 77% 29.92 in 0.8 mi West 21.9 mph 33.4 mph 0.00 in Snow Light Snow
9:53 AM 6.1 °F -14.3 °F -0.9 °F 73% 29.96 in 1.0 mi West 20.7 mph 28.8 mph 0.00 in Snow Light Snow
10:20 AM 5.0 °F -14.7 °F -2.2 °F 72% 29.93 in 1.2 mi West 18.4 mph 31.1 mph 0.00 in Snow Light Snow
10:30 AM 5.0 °F -18.3 °F -2.2 °F 72% 29.93 in 0.8 mi WSW 27.6 mph 35.7 mph 0.00 in Snow Light Snow
10:53 AM 3.9 °F -18.5 °F -4.0 °F 70% 29.98 in 0.8 mi WSW 24.2 mph 33.4 mph 0.00 in Snow Light Snow
11:12 AM 1.4 °F -20.5 °F -5.8 °F 72% 29.94 in 1.2 mi West 20.7 mph 33.4 mph 0.00 in Snow Light Snow
11:22 AM 1.4 °F -21.0 °F -5.8 °F 72% 29.94 in 0.8 mi WSW 21.9 mph 33.4 mph 0.00 in Snow Light Snow
11:30 AM 1.4 °F -21.4 °F -7.6 °F 66% 29.95 in 1.5 mi West 23.0 mph 29.9 mph 0.00 in Snow Light Snow
11:53 AM -0.0 °F -24.3 °F -8.0 °F 69% 29.99 in 1.2 mi West 25.3 mph 38.0 mph 0.00 in Snow Light Snow
12:07 PM -0.4 °F -24.7 °F -9.4 °F 66% 29.95 in 2.5 mi West 25.3 mph 31.1 mph 0.00 in Snow Light Snow
12:20 PM -0.4 °F -25.2 °F -9.4 °F 66% 29.95 in 1.8 mi West 26.5 mph 34.5 mph 0.00 in Snow Light Snow
12:28 PM -0.4 °F -23.8 °F -9.4 °F 66% 29.95 in 3.0 mi West 23.0 mph 34.5 mph 0.00 in Snow Light Snow
12:33 PM -0.4 °F -23.8 °F -9.4 °F 66% 29.95 in 1.8 mi West 23.0 mph 35.7 mph 0.00 in Snow Light Snow
12:53 PM -0.9 °F -27.5 °F -11.0 °F 62% 30.00 in 1.8 mi West 31.1 mph 40.3 mph 0.00 in Snow Light Snow
1:07 PM -0.4 °F -23.8 °F -11.2 °F 60% 29.96 in 3.0 mi West 23.0 mph 34.5 mph 0.00 in Snow Light Snow
1:12 PM -2.2 °F -27.6 °F -11.2 °F 66% 29.96 in 1.8 mi West 26.5 mph 38.0 mph 0.00 in Snow Light Snow
1:26 PM -2.2 °F -26.2 °F -11.2 °F 66% 29.95 in 3.0 mi West 23.0 mph 32.2 mph 0.00 in Snow Light Snow
1:53 PM -2.0 °F -24.4 °F -11.9 °F 63% 30.01 in 3.0 mi West 19.6 mph 35.7 mph 0.00 in Snow Light Snow
2:45 PM -2.2 °F -28.4 °F -14.8 °F 55% 29.98 in 6.0 mi West 28.8 mph 33.4 mph 0.00 in Snow Light Snow
2:53 PM -2.9 °F -29.0 °F -14.1 °F 59% 30.03 in 3.0 mi West 27.6 mph 34.5 mph 0.00 in Snow Light Snow
3:53 PM -5.1 °F -31.9 °F -15.0 °F 62% 30.07 in 4.0 mi West 27.6 mph 35.7 mph 0.00 in Snow Light Snow
4:15 PM -5.8 °F -33.3 °F -14.8 °F 65% 30.04 in 5.0 mi West 28.8 mph 38.0 mph 0.00 in Snow Light Snow
4:53 PM -6.0 °F -32.2 °F -17.0 °F 59% 30.11 in 7.0 mi West 25.3 mph 36.8 mph 0.00 in Snow Light Snow
5:53 PM -8.0 °F -35.3 °F -18.0 °F 61% 30.15 in 4.0 mi West 26.5 mph 36.8 mph 0.00 in Snow Light Snow
6:53 PM -9.0 °F -36.3 °F -18.9 °F 62% 30.18 in 6.0 mi West 25.3 mph 38.0 mph 0.00 in Snow Light Snow
7:53 PM -9.9 °F -38.0 °F -20.0 °F 61% 30.21 in 7.0 mi West 26.5 mph 33.4 mph 0.00 in Snow Light Snow
8:53 PM -11.0 °F -36.8 °F -20.9 °F 62% 30.24 in 7.0 mi West 20.7 mph 35.7 mph 0.00 in Snow Light Snow
9:53 PM -11.0 °F -36.8 °F -20.9 °F 62% 30.25 in 6.0 mi West 20.7 mph 36.8 mph 0.00 in Snow Light Snow
10:53 PM -11.0 °F -39.4 °F -20.9 °F 62% 30.25 in 6.0 mi West 26.5 mph 33.4 mph 0.00 in Snow Light Snow
11:53 PM -11.0 °F -37.9 °F -20.0 °F 64% 30.25 in 9.0 mi West 23.0 mph 29.9 mph 0.00 in Snow Light Snow